Las Vegas, NV

10:48 AM PST on February 25, 2017 (GMT -0800)
North Las Vegas

Weather History for KVGT - May, 2013

Change the Weather History Date:

Friday, May 24, 2013

  Actual Average Record
Temperature  
Mean Temperature 77 °F 78 °F  
Max Temperature 91 °F 90 °F 107 °F (2001)
Min Temperature 64 °F 67 °F 50 °F (2010)
Degree Days  
Heating Degree Days 0 0  
Month to date heating degree days 0  
Since 1 July heating degree days 2038  
Cooling Degree Days 12 14  
Month to date cooling degree days 245  
Year to date cooling degree days 372  
Growing Degree Days 27 (Base 50)    
Moisture  
Dew Point 10 °F    
Average Humidity 8    
Maximum Humidity 11    
Minimum Humidity 4    
Precipitation  
Precipitation 0.00 in 0.01 in 0.03 in (2008)
Month to date precipitation 0.11  
Year to date precipitation 2.57  
Sea Level Pressure  
Sea Level Pressure 29.82 in    
Wind  
Wind Speed 6 mph (West)    
Max Wind Speed 14 mph    
Max Gust Speed 24 mph    
Visibility 10 miles    
Events      
T = Trace of Precipitation, MM = Missing Value Source: NWS Daily Summary

Daily Weather History Graph

Daily Weather History Graph

Search for Another Location

Airport or City:

Trip Planner

Search our weather history database for the weather conditions in past years. The results will help you decide how hot, cold, wet, or windy it might be!

Date:

Astronomy

May. 24, 2013 Rise Set
Actual Time 5:28 AM PDT 7:47 PM PDT
Civil Twilight 4:58 AM PDT 8:16 PM PDT
Nautical Twilight 4:22 AM PDT 8:52 PM PDT
Astronomical Twilight 3:43 AM PDT 9:32 PM PDT
Moon 7:35 PM PDT (5/24) 5:02 AM PDT (5/24)
Length of Visible Light 15h 17m
Length of Day
14h 19m
Full, 100% of the Moon is Illuminated
May 24
Full
May 24
Full
May 31
Last Quarter
Jun 8
New
Jun 16
First Quarter

Hourly Weather History & Observations

Time (PDT) Temp. Dew Point Humidity Pressure Visibility Wind Dir Wind Speed Gust Speed Precip Events Conditions
12:53 AM 69.1 °F 10.9 °F 11% 29.79 in 10.0 mi North 4.6 mph - N/A   Clear
1:53 AM 69.1 °F 10.0 °F 10% 29.79 in 10.0 mi Calm Calm - N/A   Clear
2:53 AM 66.9 °F 5.0 °F 9% 29.81 in 10.0 mi NNW 8.1 mph - N/A   Clear
3:53 AM 66.0 °F 3.0 °F 8% 29.82 in 10.0 mi North 5.8 mph - N/A   Clear
4:53 AM 66.0 °F 1.0 °F 8% 29.83 in 10.0 mi North 9.2 mph - N/A   Clear
5:53 AM 64.9 °F 3.0 °F 9% 29.86 in 10.0 mi NNW 5.8 mph - N/A   Clear
6:53 AM 68.0 °F 3.0 °F 8% 29.88 in 10.0 mi NW 9.2 mph - N/A   Clear
7:53 AM 71.1 °F 3.0 °F 7% 29.89 in 10.0 mi NNW 9.2 mph - N/A   Clear
8:53 AM 75.0 °F 3.0 °F 6% 29.89 in 10.0 mi North 5.8 mph - N/A   Clear
9:53 AM 78.1 °F 3.9 °F 6% 29.89 in 10.0 mi East 9.2 mph - N/A   Clear
10:53 AM 80.1 °F 10.0 °F 7% 29.88 in 10.0 mi South 5.8 mph - N/A   Clear
11:53 AM 81.0 °F 16.0 °F 9% 29.89 in 10.0 mi Variable 6.9 mph - N/A   Clear
12:53 PM 84.0 °F 18.0 °F 9% 29.86 in 10.0 mi SSW 9.2 mph - N/A   Clear
1:53 PM 87.1 °F 19.0 °F 8% 29.83 in 10.0 mi NNE 4.6 mph - N/A   Clear
2:53 PM 87.1 °F 19.0 °F 8% 29.81 in 10.0 mi Calm Calm - N/A   Clear
3:53 PM 90.0 °F 19.0 °F 7% 29.77 in 10.0 mi SSE 8.1 mph - N/A   Clear
4:53 PM 90.0 °F 15.1 °F 6% 29.76 in 10.0 mi South 10.4 mph 21.9 mph N/A   Clear
5:53 PM 89.1 °F 15.1 °F 6% 29.75 in 10.0 mi South 13.8 mph 24.2 mph N/A   Clear
6:53 PM 87.1 °F 12.9 °F 6% 29.75 in 10.0 mi WSW 11.5 mph - N/A   Clear
7:53 PM 84.0 °F 3.0 °F 4% 29.76 in 10.0 mi WSW 10.4 mph - N/A   Clear
8:53 PM 82.0 °F 9.0 °F 6% 29.78 in 10.0 mi West 5.8 mph - N/A   Clear
9:53 PM 80.1 °F 12.9 °F 8% 29.80 in 10.0 mi SW 4.6 mph - N/A   Clear
10:53 PM 75.9 °F 12.9 °F 9% 29.80 in 10.0 mi ESE 4.6 mph - N/A   Clear
11:53 PM 77.0 °F 18.0 °F 11% 29.79 in 10.0 mi South 5.8 mph - N/A   Clear